Wind_Speed
6 8 9 11 12 13 13 14 15 14 16 16 15 14 13 12 11 12 14 15 20 20 25 23 19 18 17 16 15 14 13 13 13 12 11 11 11 11 12 11 9 8 8
6 7 9 10 12 13 14 16 17 17 18 18 17 15 14 14 14 15 17 18 20 19 16 22 26 20 19 18 16 16 15 13 13 13 12 12 12 12 13 12 11 10 9
8 6 7 9 11 13 14 16 17 17 18 18 18 17 15 15 17 18 19 19 20 20 21 23 21 22 19 19 18 17 16 15 15 14 13 13 13 14 13 13 12 11 10
10 9 7 8 9 11 12 13 15 16 17 17 18 18 18 18 19 20 21 20 21 21 22 22 23 26 20 19 19 19 17 16 17 16 15 15 15 15 15 14 13 12 12
14 12 10 9 10 11 11 12 14 15 16 18 18 19 20 21 21 22 23 24 22 19 18 18 28 26 21 19 20 20 19 18 18 18 17 17 16 16 15 15 15 14 14
19 16 13 12 12 12 12 13 14 15 16 19 19 20 21 23 25 24 23 24 23 21 19 19 28 30 25 22 20 22 21 20 20 19 19 18 17 17 16 16 15 15 14
21 20 17 15 14 13 14 15 17 18 18 19 20 20 22 25 26 25 24 26 23 22 23 22 32 27 29 23 22 23 23 21 20 20 21 21 20 19 18 18 17 17 16
22 22 21 19 17 17 17 17 18 19 20 20 21 21 23 23 25 24 25 26 26 23 23 23 26 28 36 27 25 24 25 22 22 22 23 23 22 22 20 19 19 18 18
20 19 21 22 21 20 20 20 21 22 22 22 22 24 25 25 23 24 27 29 28 26 21 23 25 36 33 34 28 26 28 26 25 24 23 25 25 24 23 23 21 20 20
26 24 22 20 21 21 23 25 25 25 25 25 25 25 25 27 26 26 25 26 30 28 28 21 27 28 30 38 31 28 29 27 27 26 26 27 26 26 25 25 23 22 21
31 30 26 25 25 24 25 29 30 28 27 27 27 27 26 27 27 32 30 29 29 29 27 28 29 32 33 40 31 29 29 29 31 29 28 28 28 27 26 26 25 23 23
33 34 30 30 29 28 24 28 31 31 29 29 29 30 28 28 28 30 31 32 32 30 28 30 31 30 38 39 34 27 30 31 32 30 28 29 29 29 29 27 26 26 25
37 35 34 35 33 30 27 26 30 30 30 30 31 31 31 30 29 30 32 31 36 39 35 35 32 30 34 36 43 30 31 33 33 32 31 30 31 31 29 29 28 28 27
37 36 31 39 38 34 29 23 25 31 32 32 33 33 33 30 30 30 32 32 35 37 37 33 32 34 29 38 40 31 31 34 34 33 33 31 31 33 31 31 30 30 29
38 36 37 37 40 37 32 29 29 27 31 33 35 35 34 32 31 30 31 31 33 32 37 32 30 35 33 38 35 40 33 34 34 33 33 32 33 34 33 32 32 32 30
35 38 38 39 40 39 38 36 35 33 33 34 35 36 34 33 31 30 31 34 32 37 41 38 30 31 33 36 35 41 36 35 35 32 33 33 34 34 33 33 34 32 32
38 40 41 40 44 44 42 42 40 38 39 38 37 37 35 34 32 30 29 29 29 32 34 32 37 32 31 41 32 42 38 37 37 34 32 32 35 34 33 33 34 33 34
39 41 43 44 44 47 46 46 43 44 41 37 36 37 35 34 32 29 28 28 30 26 30 28 27 31 35 39 38 33 45 39 38 37 38 42 37 35 34 31 39 37 33
42 45 47 47 48 47 49 49 46 44 41 38 36 39 37 34 33 28 29 31 29 32 28 27 30 32 27 37 37 37 42 49 45 42 43 41 38 37 37 39 44 40 39
44 46 50 50 51 49 52 52 48 44 39 41 41 40 38 35 33 28 26 23 25 28 30 24 31 35 36 31 39 39 42 48 46 44 42 42 39 43 45 48 38 39 37
32 34 37 41 42 46 50 50 46 42 38 46 44 42 39 35 32 28 28 25 23 24 23 27 31 37 40 39 40 33 33 42 38 39 41 48 47 43 45 41 39 39 42
24 35 35 38 40 40 41 41 41 42 37 40 42 41 38 36 32 29 29 27 27 22 27 26 28 26 39 38 32 36 34 37 40 37 41 34 37 36 39 42 43 41 39
28 25 32 34 37 39 38 40 42 41 48 33 42 39 37 36 33 32 30 32 29 25 26 25 26 32 36 29 28 35 41 40 39 39 37 37 40 35 41 41 46 46 41
25 27 30 29 37 39 38 31 42 40 36 37 42 44 35 36 32 34 33 30 28 25 25 26 26 28 38 31 28 30 32 36 37 36 37 38 42 43 39 49 50 44 38
15 18 20 23 26 31 30 35 30 26 33 31 37 33 38 38 33 37 35 31 30 30 29 29 29 32 30 33 35 34 38 41 43 44 42 38 39 39 41 43 43 42 40
8 7 8 13 18 23 28 28 35 38 34 37 39 38 37 42 37 32 35 39 36 36 35 39 34 37 38 37 38 35 37 40 35 43 44 44 42 48 44 46 48 46 46
Wind_Direction
213 224 225 226 228 231 232 238 243 248 258 261 260 265 275 272 258 247 246 253 246 261 239 239 243 246 244 242 236 230 227 225 219 212 202 202 196 199 187 184 187 190 192
208 219 224 225 228 233 233 237 241 245 252 259 259 257 267 268 261 250 250 257 265 277 271 240 239 240 239 241 234 228 224 227 221 214 204 204 199 197 190 191 193 201 204
207 213 222 227 224 230 236 240 243 245 254 261 263 264 263 265 265 259 256 255 266 266 282 238 242 234 234 238 231 226 222 221 222 212 208 204 201 200 198 200 202 210 217
213 214 219 224 228 234 245 250 251 250 252 258 262 262 264 261 260 263 262 259 266 270 264 241 245 244 231 232 230 224 220 219 219 212 208 204 203 204 204 206 211 219 227
222 219 222 225 232 240 250 256 260 260 259 256 257 260 262 263 258 259 258 264 262 266 263 265 243 245 229 232 228 226 219 219 221 216 211 206 207 207 211 211 218 223 231
232 227 226 232 236 243 250 257 263 264 265 259 257 261 265 266 261 260 258 255 260 262 259 262 244 265 226 236 226 228 220 220 222 218 215 211 213 211 213 218 225 229 233
237 237 232 234 243 249 251 252 255 261 268 267 263 265 268 269 267 261 259 253 255 256 259 266 253 245 224 241 232 228 222 219 225 222 219 216 215 217 218 220 226 230 233
240 240 243 238 244 249 254 258 263 265 265 268 269 270 272 273 269 267 263 256 256 265 258 256 235 248 223 237 239 224 225 216 221 225 225 221 219 221 223 226 227 232 236
231 236 245 245 246 252 256 258 260 264 268 270 271 269 277 281 278 263 266 256 251 258 265 262 255 238 230 222 245 228 224 220 218 222 226 228 225 224 226 227 230 234 239
237 242 244 241 246 253 260 259 257 260 264 272 275 275 278 282 279 276 264 251 244 250 261 269 262 250 222 231 240 226 226 223 223 219 223 228 230 230 231 235 232 234 241
241 245 245 247 254 259 263 259 253 256 262 267 273 278 280 283 275 273 273 270 248 251 253 256 260 251 244 230 236 227 228 226 229 226 226 227 231 232 236 237 238 238 242
241 241 246 251 256 262 270 260 254 253 258 263 268 276 281 285 283 281 276 271 268 268 255 258 252 257 245 228 227 230 230 227 230 229 230 232 233 234 235 235 237 240 242
243 239 245 252 256 264 265 266 256 255 257 261 266 273 277 281 281 279 272 270 269 261 259 256 260 249 249 257 217 236 236 230 229 231 229 232 237 237 236 237 237 242 242
243 241 251 251 254 258 259 269 272 261 259 261 262 269 275 279 277 276 276 268 269 267 263 266 260 253 252 245 218 236 234 233 231 232 234 233 236 240 239 239 240 243 244
242 245 247 245 250 254 257 268 277 274 265 264 260 263 272 278 280 279 273 265 274 270 258 260 260 263 245 224 235 231 239 235 233 233 236 235 236 238 239 241 242 245 246
241 246 246 246 250 252 257 264 274 271 276 277 263 261 270 277 279 278 272 268 263 268 265 262 259 259 245 244 240 223 237 234 232 231 234 233 236 238 239 241 242 244 245
245 251 248 250 251 252 254 258 265 272 274 275 262 259 268 274 279 277 269 269 266 271 263 266 261 252 241 232 236 229 230 230 228 226 234 235 236 236 237 240 245 249 249
243 248 250 250 252 253 253 256 260 271 268 267 262 257 263 269 277 273 272 262 261 256 266 260 251 247 242 228 243 241 230 228 232 229 233 238 237 239 239 241 255 252 251
252 252 252 250 249 249 251 255 259 264 262 258 258 257 259 263 272 270 267 261 252 269 254 244 249 253 245 236 242 240 231 222 227 229 234 238 238 241 244 256 256 250 253
258 254 250 251 251 249 248 252 256 259 253 253 247 256 258 260 268 268 252 256 260 254 252 259 251 250 251 246 242 249 236 227 230 232 231 241 239 244 247 253 249 251 254
257 248 248 250 250 251 252 254 257 252 250 258 238 255 258 256 261 258 249 259 258 255 239 259 250 250 246 232 244 244 236 224 228 228 226 238 247 248 248 245 245 250 252
257 242 247 247 248 249 251 253 255 255 271 250 244 257 252 251 253 252 253 249 252 246 254 260 255 247 239 241 251 237 233 229 233 237 239 241 250 252 257 243 242 249 254
249 259 247 249 250 251 253 256 254 257 256 253 241 246 249 246 250 246 247 246 247 244 250 258 245 255 243 253 245 237 239 240 247 244 247 248 251 251 251 250 246 252 254
260 268 262 260 254 254 256 260 258 254 258 254 244 243 242 244 246 244 243 247 240 241 249 250 259 249 245 254 243 239 239 240 244 249 249 242 248 251 253 247 252 261 258
275 272 274 269 263 253 264 263 243 234 239 247 242 238 247 243 242 238 240 246 247 248 239 250 244 257 252 264 261 259 246 249 250 245 246 248 250 255 250 246 256 258 263
1 320 300 287 276 262 272 268 253 256 254 245 241 244 231 244 232 235 244 243 244 244 248 243 247 252 255 249 252 254 249 245 249 242 248 241 247 246 249 246 263 254 261
Height
3131 3132 3132 3133 3134 3137 3139 3141 3142 3143 3145 3146 3147 3147 3148 3148 3148 3149 3150 3151 3151 3151 3150 3153 3155 3157 3159 3160 3162 3163 3164 3166 3167 3168 3169 3171 3173 3176 3177 3179 3181 3183 3184
3129 3130 3130 3130 3132 3134 3136 3137 3139 3139 3141 3143 3144 3145 3145 3145 3145 3146 3148 3148 3148 3148 3147 3147 3151 3153 3155 3157 3159 3160 3162 3164 3165 3166 3168 3169 3171 3173 3175 3177 3179 3181 3182
3127 3128 3128 3129 3129 3131 3132 3134 3135 3136 3138 3139 3140 3142 3142 3143 3143 3143 3143 3145 3145 3146 3144 3143 3144 3149 3151 3153 3155 3156 3159 3160 3163 3163 3166 3167 3169 3171 3173 3175 3177 3179 3180
3124 3126 3126 3127 3127 3128 3129 3130 3132 3133 3134 3135 3136 3137 3138 3139 3140 3139 3139 3140 3141 3142 3142 3141 3140 3143 3147 3149 3152 3153 3155 3157 3159 3160 3162 3164 3166 3168 3170 3172 3174 3176 3177
3121 3122 3124 3124 3125 3126 3126 3128 3129 3130 3131 3132 3133 3133 3133 3135 3135 3135 3135 3135 3136 3137 3138 3139 3137 3139 3143 3145 3147 3149 3151 3153 3156 3157 3159 3160 3163 3165 3168 3169 3171 3172 3174
3118 3119 3120 3121 3122 3123 3124 3125 3126 3127 3128 3128 3128 3128 3128 3129 3130 3131 3131 3132 3132 3133 3134 3134 3132 3134 3138 3141 3142 3146 3147 3149 3152 3154 3156 3158 3160 3162 3164 3166 3168 3169 3170
3113 3115 3116 3117 3118 3120 3121 3121 3122 3123 3124 3124 3124 3124 3123 3123 3124 3125 3127 3127 3128 3129 3129 3129 3128 3129 3133 3136 3138 3142 3143 3145 3149 3151 3153 3154 3156 3159 3160 3162 3164 3165 3167
3108 3110 3112 3113 3114 3115 3116 3117 3118 3119 3119 3119 3119 3119 3118 3118 3118 3119 3121 3122 3123 3124 3124 3125 3123 3126 3128 3130 3134 3136 3139 3139 3143 3147 3149 3150 3152 3155 3157 3158 3159 3162 3163
3102 3104 3106 3108 3109 3110 3111 3112 3113 3113 3114 3114 3113 3113 3111 3111 3112 3113 3114 3115 3117 3118 3119 3120 3120 3119 3122 3126 3128 3130 3133 3135 3137 3140 3144 3147 3148 3150 3152 3153 3155 3157 3158
3097 3098 3100 3102 3103 3104 3105 3106 3107 3107 3107 3107 3108 3107 3106 3106 3104 3105 3107 3109 3111 3112 3113 3114 3115 3114 3117 3120 3123 3125 3128 3130 3132 3134 3137 3140 3143 3145 3147 3149 3150 3152 3154
3090 3092 3094 3096 3097 3098 3099 3100 3100 3100 3101 3101 3102 3101 3100 3100 3098 3098 3098 3101 3103 3105 3106 3107 3108 3109 3110 3113 3117 3119 3122 3123 3127 3128 3131 3133 3137 3139 3142 3144 3146 3147 3148
3082 3084 3087 3089 3091 3092 3092 3092 3093 3093 3094 3095 3095 3094 3094 3094 3093 3092 3090 3092 3095 3097 3098 3099 3100 3101 3103 3106 3109 3113 3115 3117 3120 3122 3125 3127 3130 3133 3135 3138 3140 3141 3143
3074 3077 3080 3083 3084 3085 3085 3085 3085 3086 3087 3087 3088 3088 3087 3087 3087 3086 3084 3084 3083 3086 3088 3090 3092 3093 3096 3097 3102 3106 3109 3111 3113 3115 3117 3120 3124 3127 3129 3132 3133 3135 3136
3067 3069 3070 3075 3076 3077 3078 3077 3078 3078 3079 3079 3080 3080 3081 3080 3080 3079 3077 3077 3076 3076 3079 3081 3085 3085 3088 3090 3095 3100 3101 3104 3106 3108 3111 3113 3116 3120 3122 3125 3126 3128 3130
3058 3061 3063 3065 3067 3068 3070 3069 3070 3071 3071 3072 3072 3072 3073 3072 3071 3071 3069 3068 3067 3066 3069 3071 3076 3078 3079 3082 3086 3091 3093 3097 3099 3102 3104 3106 3109 3112 3115 3118 3119 3120 3122
3049 3050 3054 3057 3059 3060 3060 3061 3062 3063 3063 3064 3064 3065 3066 3065 3064 3062 3062 3060 3059 3060 3058 3062 3067 3068 3071 3074 3077 3082 3086 3090 3091 3093 3096 3098 3101 3105 3107 3109 3110 3112 3114
3041 3042 3045 3047 3049 3050 3051 3053 3053 3054 3055 3054 3055 3056 3057 3056 3055 3054 3054 3052 3052 3052 3052 3051 3057 3059 3060 3066 3069 3072 3077 3080 3083 3084 3087 3089 3093 3095 3098 3101 3103 3105 3107
3030 3033 3034 3036 3038 3040 3041 3041 3043 3044 3045 3044 3045 3046 3048 3047 3047 3046 3045 3045 3045 3046 3045 3044 3047 3051 3052 3057 3060 3063 3066 3072 3074 3075 3079 3083 3086 3088 3091 3093 3096 3098 3099
3021 3021 3022 3024 3026 3029 3030 3030 3031 3033 3034 3034 3034 3036 3038 3038 3039 3038 3038 3037 3037 3037 3037 3037 3040 3043 3045 3049 3051 3054 3056 3059 3064 3069 3072 3075 3078 3081 3084 3085 3086 3089 3091
3009 3010 3011 3012 3014 3016 3017 3018 3020 3022 3023 3023 3024 3026 3028 3030 3031 3030 3030 3030 3030 3030 3031 3031 3032 3034 3036 3039 3042 3046 3047 3052 3056 3062 3065 3068 3070 3071 3074 3076 3078 3080 3081
2997 2999 3001 3002 3003 3004 3005 3008 3010 3012 3012 3010 3013 3016 3019 3020 3022 3021 3021 3022 3021 3022 3023 3025 3024 3025 3028 3031 3033 3037 3040 3044 3048 3052 3056 3059 3061 3062 3063 3066 3068 3070 3072
2990 2991 2992 2993 2993 2994 2996 2998 3002 3002 2996 2992 3001 3005 3009 3010 3011 3012 3013 3014 3015 3015 3016 3018 3017 3019 3021 3024 3026 3029 3033 3035 3038 3044 3046 3049 3051 3052 3053 3055 3057 3060 3062
2984 2983 2984 2985 2985 2986 2988 2989 2991 2992 2990 2987 2985 2996 2997 3000 3001 3004 3005 3006 3006 3008 3009 3010 3011 3012 3015 3018 3019 3022 3024 3028 3031 3034 3037 3038 3041 3041 3042 3044 3047 3049 3050
2977 2977 2977 2976 2976 2976 2978 2978 2980 2982 2980 2980 2982 2987 2987 2990 2992 2995 2996 2998 2999 3000 3002 3004 3004 3006 3008 3011 3011 3014 3017 3020 3022 3023 3025 3026 3029 3031 3032 3033 3036 3037 3038
2970 2970 2970 2969 2967 2967 2968 2969 2969 2967 2971 2973 2973 2974 2976 2979 2982 2985 2987 2990 2991 2992 2993 2997 2997 2999 3001 3002 3004 3007 3008 3009 3010 3013 3015 3017 3019 3020 3021 3022 3023 3025 3027
2968 2966 2965 2963 2961 2961 2961 2961 2961 2961 2961 2963 2964 2964 2966 2970 2975 2976 2978 2980 2983 2984 2984 2987 2989 2990 2992 2992 2995 2995 2997 2998 3000 3002 3003 3005 3006 3009 3008 3010 3012 3014 3015